Weather History for San Jose, Costa Rica

Change the Weather History Date:

Saturday, December 4, 2010

  Actual Average Record
Temperature  
Mean Temperature 72 °F -  
Max Temperature 79 °F 79 °F 86 °F (1997)
Min Temperature 64 °F 64 °F 60 °F (2003)
Cooling Degree Days 6    
Growing Degree Days 22 (Base 50)    
Moisture  
Dew Point 60 °F    
Average Humidity 67    
Maximum Humidity 88    
Minimum Humidity 44    
Precipitation  
Precipitation 0.00 in 0.04 in - ()
Sea Level Pressure  
Sea Level Pressure 29.98 in    
Wind  
Wind Speed 10 mph ()    
Max Wind Speed 14 mph    
Max Gust Speed -    
Visibility 8.0 miles    
Events      
Averages and records for this station are not official NWS values.
T = Trace of Precipitation, MM = Missing Value Source: Averaged Metar Reports

Daily Weather History Graph

Daily Weather History Graph

Search for Another Location

Airport:

Trip Planner

Search our weather history database for the weather conditions in past years. The results will help you decide how hot, cold, wet, or windy it might be!

Date:

Astronomy

Dec. 04, 2010 Rise Set
Actual Time 5:39 AM CST 5:14 PM CST
Civil Twilight 5:17 AM CST 5:36 PM CST
Nautical Twilight 4:51 AM CST 6:03 PM CST
Astronomical Twilight 4:25 AM CST 6:29 PM CST
Moon 4:31 AM CST (12/4) 4:23 PM CST (12/4)
Length of Visible Light 12h 19m
Length of Day
11h 34m
Waning Crescent, 1% of the Moon is Illuminated
Dec 4
Waning Crescent
Dec 5
New
Dec 13
First Quarter
Dec 21
Full
Dec 27
Last Quarter

Hourly Weather History & Observations

Time (CST) Temp. Dew Point Humidity Pressure Visibility Wind Dir Wind Speed Gust Speed Precip Events Conditions
12:00 AM 68 °F 57 °F 60% 29.86 in 12 mi ESE 10.4 mph - -   Clear
12:00 AM 68.0 °F 57.2 °F 68% 30.03 in 6.2 mi ESE 10.4 mph - N/A   Unknown
1:00 AM 68.0 °F 59.0 °F 73% 30.00 in 6.2 mi ESE 13.8 mph - N/A   Unknown
2:00 AM 66.2 °F 59.0 °F 78% 29.99 in - ESE 10.4 mph - N/A   Clear
3:00 AM 66 °F 59 °F 72% 29.84 in 12 mi East 11.5 mph - -   Scattered Clouds
3:00 AM 66.2 °F 59.0 °F 78% 30.00 in 6.2 mi East 11.5 mph - N/A   Partly Cloudy
4:00 AM 66.2 °F 59.0 °F 78% 29.99 in 6.2 mi ESE 13.8 mph - N/A   Unknown
5:00 AM 66.2 °F 59.0 °F 78% 30.00 in 6.2 mi ESE 11.5 mph - N/A   Unknown
6:00 AM 66 °F 59 °F 72% 29.87 in 12 mi ENE 5.8 mph - -   Scattered Clouds
6:00 AM 66.2 °F 59.0 °F 78% 30.02 in - ENE 5.8 mph - N/A   Clear
7:00 AM 69.8 °F 59.0 °F 68% 30.04 in - ESE 10.4 mph - N/A   Clear
8:00 AM 73.4 °F 59.0 °F 61% 30.05 in - ESE 10.4 mph - N/A   Clear
9:00 AM 77 °F 59 °F 44% 29.91 in 12 mi ESE 13.8 mph - -   Clear
9:00 AM 77.0 °F 59.0 °F 54% 30.06 in - ESE 13.8 mph - N/A   Clear
10:00 AM 78.8 °F 60.8 °F 54% 30.06 in 6.2 mi East 12.7 mph - N/A   Scattered Clouds
11:00 AM 77.0 °F 62.6 °F 61% 30.03 in 6.2 mi ESE 11.5 mph - N/A   Scattered Clouds
12:00 PM 79 °F 63 °F 48% 29.85 in 12 mi East 13.8 mph - -   Partly Cloudy
12:00 PM 78.8 °F 62.6 °F 57% 30.02 in 6.2 mi East 13.8 mph - N/A   Scattered Clouds
1:00 PM 77.0 °F 66.2 °F 69% 29.99 in 6.2 mi ESE 13.8 mph - N/A   Mostly Cloudy
2:00 PM 77.0 °F 60.8 °F 57% 29.96 in 6.2 mi SE 12.7 mph - N/A   Scattered Clouds
3:00 PM 77 °F 61 °F 48% 29.81 in 12 mi SE 12.7 mph - -   Partly Cloudy
3:00 PM 77.0 °F 60.8 °F 57% 29.96 in 6.2 mi SE 12.7 mph - N/A   Scattered Clouds
4:00 PM 75.2 °F 60.8 °F 61% 29.97 in 6.2 mi East 11.5 mph - N/A   Scattered Clouds
5:00 PM 71.6 °F 60.8 °F 69% 29.99 in 6.2 mi ESE 11.5 mph - N/A   Scattered Clouds
6:00 PM 70 °F 63 °F 71% 29.86 in 12 mi ESE 8.1 mph - -   Scattered Clouds
6:00 PM 69.8 °F 62.6 °F 78% 30.00 in 6.2 mi ESE 8.1 mph - N/A   Scattered Clouds
7:00 PM 68.0 °F 60.8 °F 78% 30.02 in 6.2 mi ESE 9.2 mph - N/A   Scattered Clouds
8:00 PM 68.0 °F 60.8 °F 78% 30.04 in 6.2 mi SE 8.1 mph - N/A   Scattered Clouds
9:00 PM 68.0 °F 59.0 °F 73% 30.05 in - East 3.5 mph - N/A   Clear
10:00 PM 66.2 °F 59.0 °F 78% 30.04 in - East 4.6 mph - N/A   Clear
11:00 PM 64.4 °F 60.8 °F 88% 30.04 in - East 2.3 mph - N/A   Clear